Regional Weather Roundup
Issued by NWS

Home | Current Version | Previous Version | Text Only | Print | Product List | Glossary On
Versions: 1 2 3 4 5 6 7 8 9 10 11 12 13 14 15 16 17 18 19 20 21 22 23 24 25 26 27 28 29 30 31 32 33 34 35 36 37 38 39 40 41 42 43 44 45 46 47 48 49 50
000
ASUS43 KLSX 250710
RWRMO

WEATHER SUMMARY FOR MISSOURI
NATIONAL WEATHER SERVICE SPRINGFIELD MO
200 AM CDT FRI MAY 25 2018

NOTE: "FAIR" INDICATES FEW OR NO CLOUDS BELOW 12,000 FEET WITH NO
       SIGNIFICANT WEATHER AND/OR OBSTRUCTIONS TO VISIBILITY.
       CURRENT SKY AND/OR WEATHER CONDITIONS ARE NOT AVAILABLE FOR
       CHILLICOTHE AND FARMINGTON.

MOZ001>031-035>038-043-044-053-054-250800-
...NORTHERN AND WESTERN MISSOURI...

CITY           SKY/WX    TMP DP  RH WIND       PRES   REMARKS
KANSAS CTY INT TSTM      68  65  90 S7        29.96F
KANSAS C DTWN  MOCLDY    72  63  73 E6        29.95F
LEE`S SUMMIT   LGT RAIN  68  66  93 SE8       29.98F
ST JOSEPH      CLOUDY    70  65  84 SE5       29.94F
CHILLICOTHE      N/A     71  64  78 S3        29.99F
KIRKSVILLE     CLOUDY    71  67  87 S5        30.00S

$$
MOZ066>068-077>081-088>096-101>105-250800-
...SOUTHWEST MISSOURI...

CITY           SKY/WX    TMP DP  RH WIND       PRES   REMARKS
SPRINGFIELD    PTCLDY    69  66  90 SW5       30.02F
JOPLIN         CLOUDY    71  67  87 SE5       30.00F
BRANSON        CLOUDY    64  64 100 CALM      30.05F

$$
MOZ032>034-039>042-045>050-055>058-069>072-250800-
...CENTRAL MISSOURI...

CITY           SKY/WX    TMP DP  RH WIND       PRES   REMARKS
COLUMBIA       CLOUDY    69  66  90 S5        30.00S
JEFFERSON CITY CLOUDY    71  68  90 SE3       29.99F
ROLLA          PTCLDY    69  64  84 S6        30.02F
SEDALIA        CLOUDY    69  66  90 NW3       30.01S
WHITEMAN AFB   CLOUDY    68  65  90 CALM      29.96S
WARRENSBURG      N/A     68  63  83 SE3       29.99F
OSAGE BEACH    CLOUDY    70  67  90 CALM      30.01F

$$
MOZ051-052-059>065-250800-
...EAST CENTRAL MISSOURI...

CITY           SKY/WX    TMP DP  RH WIND       PRES   REMARKS
ST LOUIS INTL  MOCLDY    77  62  59 S7        30.01F
SPIRIT OF STL  CLEAR     69  65  86 CALM      29.99F
ST CHARLES     MOCLDY    70  67  90 CALM      30.00F

$$
MOZ072>076-082>087-097>100-106>115-250800-
...SOUTH CENTRAL AND SOUTHEAST MISSOURI...

CITY           SKY/WX    TMP DP  RH WIND       PRES   REMARKS
CAPE GIRARDEAU FAIR      69  64  84 CALM      30.00F
POPLAR BLUFF   FAIR      72  71  97 CALM      30.00F
WEST PLAINS    CLOUDY    69  66  90 SW5       30.05S

$$



USA.gov is the U.S. government's official web portal to all federal, state and local government web resources and services.